| time (UTC) | temp C | wind direction | speed KPH | gust KPH | rain 1hr cm | rain 24hr cm | rain mn cm | humidity % | barometer mb |
| 20260504234626 | 12 | 172 | 1.6 | 3.2 | 0.00 | 0.00 | 0.00 | 52 | 1014.3 |
| 20260504233630 | 12 | 140 | 3.2 | 9.7 | 0.00 | 0.00 | 0.00 | 53 | 1014.3 |
| 20260504232624 | 12 | 196 | 1.6 | 4.8 | 0.00 | 0.00 | 0.00 | 53 | 1014.3 |
| 20260504231627 | 12 | 249 | 1.6 | 3.2 | 0.00 | 0.00 | 0.00 | 52 | 1014.3 |
| 20260504230712 | 12 | 243 | 1.6 | 4.8 | 0.00 | 0.00 | 0.00 | 51 | 1014.5 |
| 20260504225645 | 13 | 241 | 3.2 | 4.8 | 0.00 | 0.00 | 0.00 | 51 | 1014.4 |
| 20260504224609 | 13 | 231 | 3.2 | 4.8 | 0.00 | 0.00 | 0.00 | 50 | 1014.6 |
| 20260504223632 | 13 | 228 | 3.2 | 9.7 | 0.00 | 0.00 | 0.00 | 50 | 1014.5 |
| 20260504222625 | 13 | 239 | 3.2 | 4.8 | 0.00 | 0.00 | 0.00 | 49 | 1014.5 |
| 20260504221619 | 13 | 241 | 3.2 | 6.4 | 0.00 | 0.00 | 0.00 | 49 | 1014.6 |
| 20260504220603 | 13 | 239 | 3.2 | 4.8 | 0.00 | 0.00 | 0.00 | 49 | 1014.6 |
| 20260504215624 | 13 | 232 | 3.2 | 4.8 | 0.00 | 0.00 | 0.00 | 48 | 1014.4 |
| 20260504214648 | 14 | 226 | 1.6 | 3.2 | 0.00 | 0.00 | 0.00 | 47 | 1014.7 |
| 20260504213633 | 14 | 208 | 1.6 | 4.8 | 0.00 | 0.00 | 0.00 | 46 | 1014.5 |
| 20260504212646 | 14 | 199 | 4.8 | 12.9 | 0.00 | 0.00 | 0.00 | 46 | 1014.5 |
| 20260504211651 | 14 | 211 | 1.6 | 4.8 | 0.00 | 0.00 | 0.00 | 45 | 1014.6 |
| 20260504210655 | 14 | 209 | 1.6 | 3.2 | 0.00 | 0.00 | 0.00 | 44 | 1014.5 |
| 20260504205618 | 14 | 207 | 3.2 | 4.8 | 0.00 | 0.00 | 0.00 | 43 | 1014.6 |
| 20260504204557 | 15 | 181 | 3.2 | 6.4 | 0.00 | 0.00 | 0.00 | 42 | 1014.6 |
| 20260504203719 | 15 | 204 | 1.6 | 4.8 | 0.00 | 0.00 | 0.00 | 41 | 1014.6 |
| 20260504202639 | 15 | 198 | 1.6 | 3.2 | 0.00 | 0.00 | 0.00 | 41 | 1014.4 |
| 20260504201542 | 16 | 222 | 1.6 | 4.8 | 0.00 | 0.00 | 0.00 | 40 | 1014.5 |
| 20260504200617 | 15 | 233 | 3.2 | 4.8 | 0.00 | 0.00 | 0.00 | 41 | 1014.6 |
| 20260504195517 | 16 | 241 | 1.6 | 3.2 | 0.00 | 0.00 | 0.00 | 40 | 1014.5 |
| 20260504194521 | 16 | 226 | 1.6 | 3.2 | 0.00 | 0.00 | 0.00 | 39 | 1014.6 |
| 20260504193535 | 16 | 220 | 1.6 | 3.2 | 0.00 | 0.00 | 0.00 | 38 | 1014.5 |
| 20260504192602 | 17 | 226 | 3.2 | 4.8 | 0.00 | 0.00 | 0.00 | 38 | 1014.5 |
| 20260504191604 | 17 | 219 | 3.2 | 4.8 | 0.00 | 0.00 | 0.00 | 37 | 1014.6 |
| 20260504190528 | 17 | 214 | 3.2 | 6.4 | 0.00 | 0.00 | 0.00 | 36 | 1014.5 |
| 20260504185552 | 18 | 200 | 3.2 | 4.8 | 0.00 | 0.00 | 0.00 | 35 | 1014.3 |
| 20260504184526 | 18 | 208 | 3.2 | 6.4 | 0.00 | 0.00 | 0.00 | 34 | 1014.3 |
| 20260504183550 | 18 | 207 | 3.2 | 6.4 | 0.00 | 0.00 | 0.00 | 33 | 1014.3 |
| 20260504182534 | 20 | 205 | 3.2 | 6.4 | 0.00 | 0.00 | 0.00 | 32 | 1014.2 |
| 20260504181538 | 20 | 198 | 3.2 | 4.8 | 0.00 | 0.00 | 0.00 | 29 | 1014.3 |
| 20260504180543 | 21 | 201 | 3.2 | 6.4 | 0.00 | 0.00 | 0.00 | 28 | 1014.2 |
| 20260504175617 | 21 | 197 | 3.2 | 9.7 | 0.00 | 0.00 | 0.00 | 27 | 1014.1 |
| 20260504174540 | 22 | 184 | 3.2 | 6.4 | 0.00 | 0.00 | 0.00 | 26 | 1014.2 |
| 20260504173545 | 22 | 177 | 4.8 | 11.3 | 0.00 | 0.00 | 0.00 | 26 | 1014.2 |
| 20260504172546 | 23 | 159 | 6.4 | 12.9 | 0.00 | 0.00 | 0.00 | 25 | 1014.0 |
| 20260504171550 | 23 | 179 | 6.4 | 14.5 | 0.00 | 0.00 | 0.00 | 25 | 1014.0 |
| 20260504170604 | 23 | 174 | 8.0 | 14.5 | 0.00 | 0.00 | 0.00 | 25 | 1014.1 |
| 20260504150605 | 25 | 188 | 8.0 | 24.1 | 0.00 | 0.00 | 0.00 | 23 | 1014.5 |
| 20260504140638 | 26 | 214 | 9.7 | 17.7 | 0.00 | 0.00 | 0.00 | 23 | 1015.1 |
| 20260504130538 | 27 | 175 | 8.0 | 17.7 | 0.00 | 0.00 | 0.00 | 22 | 1015.7 |
| 20260504110544 | 26 | 147 | 9.7 | 25.7 | 0.00 | 0.00 | 0.00 | 26 | 1017.1 |
| 20260504100611 | 25 | 174 | 12.9 | 27.4 | 0.00 | 0.00 | 0.00 | 27 | 1017.8 |
| 20260504081605 | 22 | 202 | 9.7 | 25.7 | 0.00 | 0.00 | 0.00 | 32 | 1018.8 |
| 20260504080629 | 21 | 215 | 8.0 | 20.9 | 0.00 | 0.00 | 0.00 | 33 | 1018.9 |
| 20260504050617 | 9 | 124 | 0.0 | 1.6 | 0.00 | 0.00 | 0.00 | 73 | 1018.7 |
| 20260504045602 | 7 | 122 | 1.6 | 3.2 | 0.00 | 0.00 | 0.00 | 74 | 1018.6 |
| 20260504044535 | 7 | 105 | 1.6 | 3.2 | 0.00 | 0.00 | 0.00 | 74 | 1018.4 |
| 20260504043559 | 7 | 99 | 0.0 | 3.2 | 0.00 | 0.00 | 0.00 | 73 | 1018.4 |
| 20260504042543 | 6 | 95 | 1.6 | 3.2 | 0.00 | 0.00 | 0.00 | 73 | 1018.4 |
| 20260504041626 | 6 | 323 | 0.0 | 1.6 | 0.00 | 0.00 | 0.00 | 72 | 1018.3 |
| 20260504040630 | 6 | 321 | 0.0 | 1.6 | 0.00 | 0.00 | 0.00 | 72 | 1018.3 |
| 20260504035604 | 6 | 321 | 1.6 | 3.2 | 0.00 | 0.00 | 0.00 | 72 | 1018.2 |
| 20260504034600 | 6 | 320 | 0.0 | 3.2 | 0.00 | 0.00 | 0.00 | 71 | 1018.1 |
| 20260504033544 | 6 | 290 | 0.0 | 3.2 | 0.00 | 0.00 | 0.00 | 71 | 1018.1 |
| 20260504032547 | 6 | 0.0 | 0.0 | 0.00 | 0.00 | 0.00 | 71 | 1018.0 | |
| 20260504031551 | 6 | 272 | 0.0 | 1.6 | 0.00 | 0.00 | 0.00 | 70 | 1018.0 |
| 20260504030555 | 7 | 0.0 | 1.6 | 0.00 | 0.00 | 0.00 | 70 | 1018.1 | |
| 20260504025549 | 7 | 272 | 0.0 | 1.6 | 0.00 | 0.00 | 0.00 | 70 | 1018.1 |
| 20260504024553 | 7 | 0.0 | 0.0 | 0.00 | 0.00 | 0.00 | 69 | 1018.0 | |
| 20260504023557 | 7 | 0.0 | 1.6 | 0.00 | 0.00 | 0.00 | 68 | 1018.0 | |
| 20260504022601 | 7 | 0.0 | 0.0 | 0.00 | 0.00 | 0.00 | 68 | 1017.9 | |
| 20260504021608 | 7 | 0.0 | 0.0 | 0.00 | 0.00 | 0.00 | 67 | 1017.9 | |
| 20260504020620 | 7 | 0.0 | 0.0 | 0.00 | 0.00 | 0.00 | 67 | 1018.1 | |
| 20260504015645 | 7 | 272 | 0.0 | 1.6 | 0.00 | 0.00 | 0.00 | 66 | 1018.1 |
| 20260504014628 | 7 | 0.0 | 0.0 | 0.00 | 0.00 | 0.00 | 66 | 1018.0 | |
| 20260504013612 | 8 | 0.0 | 1.6 | 0.00 | 0.00 | 0.00 | 65 | 1017.9 | |
| 20260504012636 | 8 | 0.0 | 1.6 | 0.00 | 0.00 | 0.00 | 65 | 1018.0 | |
| 20260504011611 | 8 | 0.0 | 1.6 | 0.00 | 0.00 | 0.00 | 64 | 1018.2 | |
| 20260504010633 | 8 | 272 | 0.0 | 1.6 | 0.00 | 0.00 | 0.00 | 64 | 1018.1 |
| 20260504005618 | 8 | 272 | 0.0 | 3.2 | 0.00 | 0.00 | 0.00 | 63 | 1018.3 |
| 20260504004633 | 8 | 216 | 1.6 | 3.2 | 0.00 | 0.00 | 0.00 | 63 | 1018.0 |
| 20260504003636 | 8 | 0.0 | 0.0 | 0.00 | 0.00 | 0.00 | 62 | 1018.0 | |
| 20260504002515 | 8 | 103 | 0.0 | 1.6 | 0.00 | 0.00 | 0.00 | 61 | 1018.1 |
| 20260504001635 | 9 | 168 | 0.0 | 1.6 | 0.00 | 0.00 | 0.00 | 60 | 1018.1 |
| 20260504000721 | 9 | 0.0 | 0.0 | 0.00 | 0.00 | 0.00 | 60 | 1018.1 | |
| 20260503235537 | 10 | 0.0 | 0.0 | 0.00 | 0.00 | 0.00 | 59 | 1018.1 |